Left ArrowRight Arrow

30.00354, -91.81873

Hourly Observations for June 24, 2024

Temp ( °F °C ) Dew Point ( °F °C ) Humidity (%) Winds ( mph kmh ) Pressure ( in mb ) Visibility ( mi km ) Precip ( " mm )
12:53 am 00:53 Clear 79 26.1 77 25 94 94 Calm 29.95 1014 10 16 0.00 0.00
1:53 am 01:53 Clear 78 25.6 77 25 96 96 Calm 29.94 1014 10 16 0.00 0.00
2:53 am 02:53 Clear 77 25 77 25 100 100 Calm 29.93 1014 10 16 0.00 0.00
3:53 am 03:53 Clear 77 25 77 25 100 100 Calm 29.92 1013 8 13 0.00 0.00
4:53 am 04:53 Clear with Mist and Fog 76 24.4 76 24.4 100 100 Calm 29.93 1014 3 4 0.00 0.00
5:01 am 05:01 Clear 76 24.4 76 24.4 100 100 Calm 29.93 1013 7 11 0.00 0.00
5:53 am 05:53 Clear 76 24.4 75 23.9 97 97 Calm 29.94 1014 10 16 0.00 0.00
6:53 am 06:53 Sunny 78 25.6 77 25 96 96 Calm 29.95 1014 10 16 0.00 0.00
7:53 am 07:53 Sunny 83 28.3 79 26.1 88 88 Calm 29.97 1015 10 16 0.00 0.00
8:53 am 08:53 Sunny 85 29.4 78 25.6 80 80 Calm 29.98 1015 10 16 0.00 0.00
9:53 am 09:53 Mostly Sunny 87 30.6 77 25 72 72 ESE 3 6 29.99 1016 10 16 0.00 0.00
10:07 am 10:07 Mostly Cloudy 88 31.1 77 25 70 70 Calm 29.99 1015 10 16 0.00 0.00
10:53 am 10:53 Mostly Cloudy 87 30.6 76 24.4 70 70 Calm 29.99 1016 10 16 0.00 0.00
11:53 am 11:53 Mostly Sunny 91 32.8 77 25 64 64 Calm 29.99 1016 10 16 0.00 0.00
12:53 pm 12:53 Cloudy 89 31.7 76 24.4 65 65 WSW 5 7 29.98 1015 10 16 0.00 0.00
1:53 pm 13:53 Cloudy 90 32.2 77 25 66 66 SW 6 9 29.96 1015 10 16 0.01 0.13
2:53 pm 14:53 Mostly Cloudy 90 32.2 78 25.6 68 68 ESE 9 15 29.95 1014 10 16 0.00 0.00
3:53 pm 15:53 Sunny 92 33.3 75 23.9 58 58 S 10 17 29.93 1014 10 16 0.00 0.00
4:53 pm 16:53 Sunny 92 33.3 74 23.3 56 56 SW 7 11 29.91 1013 10 16 0.00 0.00
5:53 pm 17:53 Sunny 90 32.2 76 24.4 64 64 S 12 19 29.90 1013 10 16 0.00 0.00
6:53 pm 18:53 Sunny 89 31.7 76 24.4 65 65 S 7 11 29.91 1013 10 16 0.00 0.00
7:53 pm 19:53 Sunny 87 30.6 74 23.3 65 65 S 7 11 29.91 1013 10 16 0.00 0.00
8:53 pm 20:53 Clear 83 28.3 76 24.4 79 79 SSW 6 9 29.91 1013 10 16 0.00 0.00
9:53 pm 21:53 Clear 81 27.2 77 25 88 88 SSW 5 7 29.91 1013 10 16 0.00 0.00
10:53 pm 22:53 Clear 80 26.7 77 25 90 90 Calm 29.94 1014 10 16 0.00 0.00
11:53 pm 23:53 Clear 80 26.7 77 25 90 90 Calm 29.94 1014 10 16 0.00 0.00

Powered by Vaisala Xweather